Location: College Park
(38.9810°N, 76.9370°W)
Time: 19:58:15
(UTC-05:00)

OTV 5 (USA 277) - Pass Details

Date: 09 January 2018
Orbit: 404 x 417 km, 43.0° (Epoch: 07 September)

Event Time Altitude Azimuth Distance (km) Brightness Sun altitude
Exits shadow 06:37:12 13° 279° (W) 1,263 ? -9.6°
Maximum altitude 06:39:51 45° 208° (SSW) 560 ? -9.1°
Drops below altitude 10° 06:43:00 10° 134° (SE) 1,450 ? -8.5°
Sets 06:45:08 0° 128° (SE) 2,307 ? -8.1°
